TimeEDT,TemperatureF,Dew PointF,Humidity,Sea Level PressureIn,VisibilityMPH,Wind Direction,Wind SpeedMPH,Gust SpeedMPH,PrecipitationIn,Events,Conditions,WindDirDegrees,DateUTC
12:53 AM,55.0,51.1,86,30.33,10.0,Calm,Calm,-,N/A,,Clear,0,2013-09-17 04:53:00
1:53 AM,54.0,51.1,90,30.34,10.0,NNE,4.6,-,N/A,,Clear,20,2013-09-17 05:53:00
2:53 AM,53.1,50.0,89,30.34,10.0,North,3.5,-,N/A,,Clear,360,2013-09-17 06:53:00
3:53 AM,51.1,48.9,92,30.34,10.0,Calm,Calm,-,N/A,,Clear,0,2013-09-17 07:53:00
4:53 AM,50.0,48.0,93,30.35,8.0,Calm,Calm,-,0.01,,Clear,0,2013-09-17 08:53:00
5:53 AM,48.9,48.0,97,30.35,7.0,Calm,Calm,-,N/A,,Clear,0,2013-09-17 09:53:00
6:53 AM,48.9,46.9,93,30.37,7.0,Calm,Calm,-,N/A,,Clear,0,2013-09-17 10:53:00
7:53 AM,50.0,48.9,96,30.38,7.0,Calm,Calm,-,N/A,,Clear,0,2013-09-17 11:53:00
8:37 AM,53.6,50.0,88,30.38,10.0,NE,3.5,-,N/A,,Partly Cloudy,50,2013-09-17 12:37:00
8:53 AM,53.1,50.0,89,30.38,10.0,ENE,5.8,-,N/A,,Mostly Cloudy,70,2013-09-17 12:53:00
9:27 AM,55.4,51.8,88,30.38,10.0,East,4.6,-,N/A,,Scattered Clouds,80,2013-09-17 13:27:00
9:53 AM,57.9,53.1,84,30.38,10.0,East,5.8,-,N/A,,Partly Cloudy,80,2013-09-17 13:53:00
10:53 AM,62.1,54.0,75,30.38,10.0,NE,4.6,-,N/A,,Clear,50,2013-09-17 14:53:00
11:53 AM,66.9,55.0,66,30.36,10.0,ENE,3.5,-,N/A,,Clear,60,2013-09-17 15:53:00
12:53 PM,70.0,53.1,55,30.35,10.0,East,4.6,-,N/A,,Partly Cloudy,100,2013-09-17 16:53:00
1:53 PM,73.0,53.1,49,30.32,10.0,Variable,3.5,-,N/A,,Mostly Cloudy,0,2013-09-17 17:53:00
2:53 PM,72.0,50.0,46,30.30,10.0,East,6.9,-,N/A,,Clear,80,2013-09-17 18:53:00
3:53 PM,73.9,50.0,43,30.28,10.0,ENE,8.1,-,N/A,,Clear,60,2013-09-17 19:53:00
4:53 PM,73.9,48.9,41,30.27,10.0,East,5.8,-,N/A,,Clear,80,2013-09-17 20:53:00
5:53 PM,72.0,48.9,44,30.26,10.0,East,6.9,-,N/A,,Clear,80,2013-09-17 21:53:00
6:53 PM,69.1,51.1,53,30.25,10.0,East,3.5,-,N/A,,Clear,100,2013-09-17 22:53:00
7:53 PM,61.0,55.0,81,30.25,10.0,Calm,Calm,-,N/A,,Clear,0,2013-09-17 23:53:00
8:53 PM,59.0,55.0,87,30.25,10.0,Calm,Calm,-,N/A,,Clear,0,2013-09-18 00:53:00
9:53 PM,57.0,54.0,89,30.25,10.0,Calm,Calm,-,N/A,,Partly Cloudy,0,2013-09-18 01:53:00
10:53 PM,55.9,53.1,90,30.26,8.0,Calm,Calm,-,N/A,,Partly Cloudy,0,2013-09-18 02:53:00
11:53 PM,57.0,54.0,89,30.25,9.0,Calm,Calm,-,N/A,,Clear,0,2013-09-18 03:53:00